{"data":{"norad_id":49285,"intl_designator":"2021-090G","name":"ONEWEB-0359","alt_names":[],"object_type":"PAYLOAD","status":"ACTIVE","operator":null,"country":"UK","launch_date":"2021-10-14","launch_site_code":"VOSTO","launch_vehicle":null,"mission":null,"orbit_class":"UNKNOWN","rcs_meters":null,"size_class":null,"mass_kg":null,"dimensions":null,"purposes":["comms"],"wikipedia_slug":null,"has_3d_model":false,"image_url":null,"decayed_at":null,"tle_current":{"epoch":"2026-09-19T22:46:51.774240Z","epoch_age_seconds":73287,"freshness":"FRESH","line1":"1 49285U 21090G   26262.94921035  .00000081  00000+0  16706-3 0  9992","line2":"2 49285  87.9143 255.5298 0002026  93.6128 266.5237 13.20770117243040","mean_motion":13.20770117,"eccentricity":0.0002026,"inclination_deg":87.9143,"raan_deg":255.5298,"arg_perigee_deg":93.6128,"mean_anomaly_deg":266.5237,"bstar":0.00016706,"rev_number":24304,"period_min":109.02730016869,"perigee_km":1180.2482051079,"apogee_km":1183.3114834132,"semimajor_km":7559.9168442606,"source":"CELESTRAK","updated_at":"2026-09-20T09:00:44.669502Z"}}}